Regional Weather Roundup
Issued by NWS

Home | Current Version | Previous Version | Graphics & Text | Print | Product List | Glossary Off
Versions: 1 2 3 4 5 6 7 8 9 10 11 12 13 14 15 16 17 18 19 20 21 22 23 24 25 26 27 28 29 30 31 32 33 34 35 36 37 38 39 40 41 42 43 44 45 46 47 48 49 50

000
ASUS43 KMKX 230100
RWRWI

WISCONSIN REGIONAL WEATHER ROUNDUP
NATIONAL WEATHER SERVICE MILWAUKEE/SULLIVAN WI
800 PM CDT TUE AUG 22 2017

NOTE: "FAIR" INDICATES FEW OR NO CLOUDS BELOW 12,000 FEET WITH NO
SIGNIFICANT WEATHER AND/OR OBSTRUCTIONS TO VISIBILITY.

WIZ001-002-006>008-014>016-023>028-230200-
NORTHWEST WISCONSIN

CITY           SKY/WX    TMP DP  RH WIND       PRES   REMARKS
SUPERIOR ARPT    N/A     64  53  69 W8        29.96S
ASHLAND        CLOUDY    63  53  70 W10       29.95R
HAYWARD        CLOUDY    63  54  72 CALM      29.98S
SIREN          CLOUDY    67  48  52 W5        30.00S
CUMBERLAND     PTCLDY    63  46  55 W8        30.00S
RICE LAKE      CLEAR     65  49  56 W6        30.01S
CHETEK         CLEAR     66  49  55 W7        30.00R
LADYSMITH      PTCLDY    64  51  63 W7        30.00S
EAU CLAIRE     NOT AVBL
MENOMONIE      CLEAR     67  49  52 W7        30.01R
NEW RICHMOND   CLEAR     66  46  49 W6        30.02S
OSCEOLA        CLEAR     67  49  51 W6        30.04S
$$

WIZ003>005-009-010-017-018-230200-
NORTH CENTRAL WISCONSIN

CITY           SKY/WX    TMP DP  RH WIND       PRES   REMARKS
MANITOWISH WTR MOCLDY    60  51  73 W9G17     29.94S
ARBOR VITAE    PTCLDY    62  52  69 W7        29.94R
WOODRUFF       PTCLDY    62  52  69 W7        29.94R
RHINELANDER    CLEAR     60  51  72 W10G20    29.95R
EAGLE RIVER    CLOUDY    60  49  65 NW7       29.92S
LAND O LAKES   CLOUDY    57  54  88 W6        29.94S
PHILLIPS       CLOUDY    59  52  78 W3        29.97S
TOMAHAWK         N/A     60  49  66 W6        29.96S
MEDFORD        PTCLDY    63  48  59 NW7       29.98R
MERRILL        PTCLDY    63  48  59 NW7       29.96R
$$

WIZ029-030-035-036-043>047-230200-
CENTRAL WISCONSIN

CITY           SKY/WX    TMP DP  RH WIND       PRES   REMARKS
WAUSAU         CLEAR     65  48  54 NW12      29.95R
MOSINEE        PTCLDY    64  48  55 NW10G16   29.97S
MARSHFIELD     PTCLDY    63  47  55 NW10      29.98R
STEVENS POINT  CLEAR     65  47  51 NW8       29.97R
WAUPACA        CLEAR     70  47  43 NW12      29.94S
WAUTOMA        PTCLDY    67  50  54 W6        29.96S
WISC RAPIDS    CLEAR     66  49  54 NW8       29.98R
CAMP DOUGLAS   NOT AVBL
$$

WIZ011>013-019>022-031-037>040-048>050-230200-
NORTHEAST WISCONSIN

CITY           SKY/WX    TMP DP  RH WIND       PRES   REMARKS
ANTIGO         CLEAR     61  49  64 NW10G17   29.95R
SHAWANO        CLEAR     67  50  54 NW6       29.92R
OCONTO         PTCLDY    66  50  57 NW5       29.89S
STURGEON BAY   CLEAR     66  52  60 W10       29.90R
GREEN BAY      MOCLDY    64  56  75 NW6       29.91R
MANITOWOC      NOT AVBL
APPLETON       PTCLDY    66  45  45 W10       29.92R
CLINTONVILLE   CLEAR     68  45  42 NW10      29.92R
OSHKOSH        PTCLDY    68  48  48 NW12      29.93S
$$

WIZ032>034-041-042-053>061-230200-
SOUTHWEST WISCONSIN

CITY           SKY/WX    TMP DP  RH WIND       PRES   REMARKS
LA CROSSE      NOT AVBL
SPARTA         PTCLDY    67  52  57 W5        30.01R
VIROQUA        PTCLDY    64  53  66 W5        30.02S
BOSCOBEL       CLEAR     67  51  56 W3        30.01F
PRAIRIE DU CHI CLEAR     69  48  46 W6        30.01F
PLATTEVILLE    CLEAR     66  52  61 NW6       30.03R
$$

WIZ056-057-062-063-064-067-068-230200-
SOUTH CENTRAL WISCONSIN

CITY           SKY/WX    TMP DP  RH WIND       PRES   REMARKS
REEDSBURG      CLEAR     67  50  54 W6        29.98S
BARABOO/DELLS  CLEAR     67  47  49 W5        29.98S
LONE ROCK      NOT AVBL
MINERAL POINT  CLEAR     68  50  52 NW5       30.02S
MADISON        PTCLDY    67  51  56 W3        29.98R
MIDDLETON      CLEAR     66  52  59 W6        30.00S
WATERTOWN      CLEAR     67  52  58 W6        29.96S
MONROE         CLEAR     66  50  55 NW6       30.00S
JANESVILLE     PTCLDY    64  52  63 NW7       29.98R
$$

WIZ051-052-058>065-066-070>072-230200-
SOUTHEAST WISCONSIN

CITY           SKY/WX    TMP DP  RH WIND       PRES   REMARKS
MILWAUKEE      PTCLDY    72  49  44 NW10      29.94S
WAUKESHA       CLEAR     64  48  55 W9        29.97R
MILWAUKEE/TIMM CLEAR     68  46  45 W6        29.96R
RACINE         CLEAR     69  50  50 NW3       29.97R
KENOSHA        CLEAR     66  50  56 NW7       29.96R
FOND DU LAC    MOCLDY    67  48  50 W6        29.95R
SHEBOYGAN      PTCLDY    63  55  75 W5        29.93R
WEST BEND      CLEAR     68  46  45 W3        29.95S
JUNEAU         PTCLDY    66  50  55 CALM      29.97S
$$

LSZ147-162-230200-
LAKE SUPERIOR

STATION/POSITION TIME  TEMP    WIND        PRES    WAVE
                       AIR SEA DIR/SP/G            HT/PER
                 (UTC) (F)     (DEG/KT/KT) (MB)    (FT/S)
W MID LAKE BUOY  2350   62 59  280/ 17/ 21 1010.7F   2/ 5
DEVILS ISLAND    0000   62     290/ 11/ 14 1012.9F
SAXON HARBOR     0040   65     340/ 12/ 15 1013.2R
$$

LMZ867-665-643>646-230200-
LAKE MICHIGAN

STATION/POSITION TIME  TEMP    WIND        PRES    WAVE
                       AIR SEA DIR/SP/G            HT/PER
                 (UTC) (F)     (DEG/KT/KT) (MB)    (FT/S)
S GREEN BAY BUOY 0030   69 71  300/ 14/ 16 1012.1R
N MID LAKE BUOY  2350   68 67  280/ 17/ 21 1010.4R   3/ 5
NORTHPORT PIER   0040   68     290/  8/ 13 1010.8R
KEWAUNEE LAKESHO 0030   67     320/  4/  7 1011.5F
SHEBOYGAN LAKESH 0000   72     290/ 10/ 13 1012.5R
PORT WASHINGTON  0030   72     290/  3/  7 1014.2S
ATWATER BUOY     2309   72 68  320/ 14/ 17 1013.6R
MILWAUKEE LAKESH 0030   72     310/  6/  8   N/A
S MID LAKE BUOY  2350   72 71  350/ 19/ 21 1012.7R   3/ 5
KENOSHA   LAKESH 0000   73     310/ 12/ 18 1013.5
$$

TC  - TEMPERATURE IN CELSIUS
VSB - VISIBILITY IN STATUTE MILES
WCI - WIND CHILL INDEX
HX  - HEAT INDEX





USA.gov is the U.S. government's official web portal to all federal, state and local government web resources and services.